CZ-6A DEB

Satellite information

Favourite Embed

Satellite Type and Status

DEBRISIN ORBIT

Key statistics

Satellite CZ-6A DEB at a glance.

Uptime

444

Days in orbit

Revolutions

≈ 14.2

Per day

Orbit

LEO

Low Earth Orbit

Inclination

88.9

Latest

Satellite identification and parameters

Extended collection of information and parameters for CZ-6A DEB.

Object identification

Identified? True

Debris? True

Object name: CZ-6A DEB

International designator: 2024-140AAP

Object number (NORAD): 61481

Object ID (CCSDS): 61481

Country: PEOPLES REPUBLIC OF CHINA (PRC)

Current information (Y/N): Y

RCS size: SMALL

Orbital parameters

Period: 101.505 minutes

Inclination: 88.8832 deg

SMA: 7208.072 km

Apoapsis: 931.132 km

Periapsis: 728.741 km

RAAN: 295.6635 deg

Eccentricy: 0.01403919

Argument of periapsis: 170.1204 deg

Mean anomaly: 190.2799 deg

Mean motion: 14.1864631 rev/day

Mean motion (dot): 0.00002798 rev/day2

B* drag term: 0.0012181461 1/REarth

Two-line elements (TLE)

Creation date: Oct. 24, 2025, 2:48 a.m.

Reference frame: TEME

Reference center: EARTH

Epoch: Oct. 23, 2025, 11:36 p.m. UTC

TLE line 0: 0 CZ-6A DEB

TLE line 1: 1 61481U 24140AAP 25296.98365061 .00002798 00000-0 12181-2 0 9994

TLE line 2: 2 61481 88.8832 295.6635 0140392 170.1204 190.2799 14.18646310 58621

Live tracking on map

Real-time ground track for satellite CZ-6A DEB.

In-orbit conjunctions

A list of the most updated potential collisions computed for object CZ-6A DEB.

Target Orbit TCA Probability of collision Miss distance Type
ARIANE 1 DEB SSO 2025-06-28 01:52:47 0.0001884772 299.0 (m) DEBRIS
FENGYUN 1C DEB SSO 2025-03-04 16:29:15 0.000252066 234.0 (m) DEBRIS
SL-16 DEB LEO 2025-03-03 05:42:22 0.0002081195 678.0 (m) DEBRIS
COSMOS 1375 DEB LEO 2024-12-12 15:36:16 0.0004531928 611.0 (m) DEBRIS
FENGYUN 1C DEB SSO 2024-11-28 16:43:27 0.0001465826 355.0 (m) DEBRIS

Associated space launch

18 Low Earth Orbit communication satellites with Ku, Q and V band payloads for the G60 constellation operated by Shanghai Spacecom Satellite Technology (SSST) with funding backed by the Shanghai local government. Initial constellation will consist of 1296 satellites by 2027 with long term plans to expand it to 12000 satellites.

CZ-6A DEB was lifted into orbit during the mission ‘Long March 6A | G60 Polar Group 01’, on board a Long March 6A space rocket.

The launch took place on Aug. 6, 2024, 6:42 a.m. from Launch Complex 9A.

For more information about the launch, click the button.

Launch to space Long March 6A | G60 Polar Group 01
Long March 6A | G60 Polar Group 01

Agency: N/A

Status: Launch Successful

Launch date: Aug. 6, 2024, 6:42 a.m. UTC

Rocket: Long March 6A

Launch pad: Launch Complex 9A

Location: Taiyuan Satellite Launch Center, People's Republic of China

...

Latest news about this satellite

News about space launch
Brightness of first Chinese broadband constellation satellites alarms astronomers

The first satellites of a Chinese broadband constellation are significantly brighter than those of Western systems, posing a new challenge for astronomers.

News about space launch
Chinese rocket stage breaks up into cloud of more than 700 pieces of space debris

HELSINKI — A Chinese Long March 6A rocket’s upper stage has fragmented into a cloud of over 700 pieces of space debris, adding to concerns about long-term orbital safety. China […]

News about space launch
China's Thousand Sails Megaconstellation Kicks Off with Dangerous Debris Field

China's Thousand Sails Megaconstellation Kicks Off with Dangerous Debris Field


Newsletter sign-up

Weekly statistics, charts and insights to help you stay on top of the space industry.